#timestamp,LO_Frequency,Hit 
1503482415.2,286046997.3,N
1503482435.0,286046998.9,N
1503482436.0,286046998.9,N
1503482455.8,286046997.0,N
1503482475.6,286046997.5,N
1503482495.4,286046996.5,N
1503482515.3,286046999.9,N
1503482535.1,286047002.1,N
1503482555.8,286047001.6,N
1503482575.7,286047000.6,N
1503482595.5,286047000.5,N
1503482615.3,286047001.0,N
1503482635.2,286047001.7,N
1503482655.9,286047000.0,N
1503482675.7,286046996.6,N
1503482695.6,286047002.3,N
1503482715.4,286047002.5,N
1503482735.2,286046999.3,N
1503482755.1,286046997.0,N
1503482756.0,286046997.0,N
1503482775.8,286046995.8,N
1503482795.6,286046995.2,N
1503482815.5,286046995.9,N
1503482835.3,286046995.7,N
1503482855.1,286046995.4,N
1503482875.8,286046994.9,N
1503482895.7,286046994.5,N
1503482915.5,286046993.1,N
1503482935.4,286046990.8,P
1503482955.2,286046991.2,N
1503482975.0,286046992.6,N
1503482975.9,286046992.6,N
1503482995.1,286046991.9,P
1503482996.0,286046991.9,P
1503483015.8,286047001.1,N
1503483035.6,286046996.5,N
1503483055.5,286047002.4,N
1503483075.3,286047000.5,N
1503483095.1,286047002.2,N
1503483115.9,286046999.1,N
1503483135.7,286046995.3,N
1503483155.5,286047001.2,N
1503483175.4,286047002.1,N
1503483195.2,286047002.5,N
1503483215.0,286047002.7,N
1503483215.9,286047002.7,N
1503483235.8,286047001.0,N
1503483255.6,286047002.1,N
1503483275.4,286047003.8,N
1503483295.2,286047002.9,N
1503483315.1,286047004.3,N
1503483316.0,286047004.3,N
1503483335.8,286047002.2,N
1503483355.6,286046998.6,N
1503483375.5,286047002.3,N
1503483395.3,286047001.8,N
1503483415.1,286047002.7,N
1503483435.9,286047001.9,N
1503483455.7,286046998.7,N
1503483475.5,286046999.2,N
1503483495.4,286046997.7,N
1503483515.2,286046998.5,N
1503483535.0,286046998.5,N
1503483535.9,286046998.5,N
1503483555.8,286046997.2,N
1503483575.6,286046995.3,N
1503483595.4,286046999.6,N
1503483615.2,286046999.3,N
1503483635.1,286047000.2,N
1503483636.0,286047000.2,N
1503483655.8,286046998.5,N
1503483675.6,286047002.8,N
1503483695.5,286047001.5,N
1503483715.3,286046998.8,N
1503483735.1,286046997.2,N
1503483755.9,286046995.2,N
1503483775.7,286046999.4,N
1503483795.5,286046996.6,N
1503483815.4,286046997.4,N
1503483835.2,286046997.1,N
1503483855.0,286046995.2,N
1503483855.9,286046995.2,N
1503483875.8,286047002.3,N
1503483895.6,286047000.4,N
1503483915.4,286047000.8,N
1503483935.3,286046998.7,N
1503483955.1,286047002.5,N
1503483956.0,286047002.5,N
1503483975.8,286047004.2,N
1503483995.7,286046998.4,N
1503484015.5,286046995.9,N
1503484035.3,286046998.3,N
1503484055.2,286046998.9,N
1503484075.9,286046997.6,N
1503484095.7,286046997.4,N
1503484115.5,286046995.8,N
1503484135.4,286046997.3,N
1503484155.2,286046998.5,N
1503484175.0,286047001.8,N
1503484175.9,286047001.8,N
1503484195.8,286047002.2,N
1503484215.6,286047002.4,N
1503484235.4,286046999.6,N
1503484255.3,286046995.7,N
1503484275.1,286046996.9,N
1503484295.8,286046998.0,N
1503484315.7,286046993.3,N
1503484335.5,286046993.3,N
1503484355.3,286046995.9,N
1503484375.2,286046994.7,N
1503484395.9,286046992.1,N
1503484415.7,286046993.4,N
1503484435.6,286046996.6,N
1503484455.4,286046997.3,N
1503484475.2,286046998.8,N
1503484495.0,286046998.1,N
1503484495.9,286046998.1,N
1503484515.8,286046996.6,N
1503484535.6,286046994.1,N
1503484555.4,286046997.9,N
1503484575.3,286046996.2,N
1503484595.1,286046990.3,P
1503484615.9,286046996.1,N
1503484635.7,286047001.1,N
1503484655.5,286047001.9,N
1503484675.3,286047002.6,N
1503484695.2,286047001.0,N
1503484715.0,286046997.3,N
1503484715.9,286046997.3,N
1503484735.7,286046995.2,N
1503484755.6,286046996.8,N
1503484775.4,286046999.4,N
1503484795.2,286046995.4,N
1503484815.1,286046997.8,N
1503484816.0,286046997.8,N
1503484835.8,286046996.5,N
1503484855.6,286046999.0,N
1503484875.5,286046998.9,N
1503484895.3,286046997.8,N
1503484915.1,286046993.4,N
1503484935.9,286046996.4,N
1503484955.7,286046992.2,N
1503484975.5,286046994.3,N
1503484995.4,286046995.7,N
1503485015.2,286046997.7,N
1503485035.0,286046993.5,N
1503485035.9,286046993.5,N
1503485055.8,286046992.3,N
1503485075.6,286046993.8,N
1503485095.4,286046992.7,N
1503485115.3,286046992.1,N
1503485135.1,286046992.2,N
1503485136.0,286046992.2,N
1503485155.8,286046993.5,N
1503485175.7,286046993.3,N
1503485195.5,286046996.2,N
1503485215.3,286046992.0,P
1503485235.2,286046998.2,N
1503485255.9,286046996.7,N
1503485275.7,286046997.8,N
1503485295.5,286047001.1,N
1503485315.4,286047000.7,N
1503485335.2,286046997.3,N
1503485355.0,286046999.6,N
1503485355.9,286046999.6,N
1503485375.8,286046998.1,N
1503485395.6,286046999.0,N
1503485415.4,286046997.0,N
1503485435.3,286046997.6,N
1503485455.1,286046996.7,N
1503485456.0,286046996.7,N
1503485475.8,286046997.3,N
1503485495.7,286046997.6,N
1503485515.5,286046995.1,N
1503485535.3,286046997.5,N
1503485555.2,286046995.8,N
1503485575.9,286046997.6,N
1503485595.7,286046995.0,N
1503485615.6,286046994.2,P
1503485635.4,286046997.8,N
1503485655.2,286046997.5,N
1503485675.1,286046999.1,N
1503485676.0,286046999.1,N
1503485695.8,286046997.9,N
1503485715.6,286046998.0,N
1503485735.5,286046995.4,P
1503485755.3,286047000.8,N
1503485775.1,286046999.9,N
1503485795.9,286046998.2,N
1503485815.7,286046998.6,N
1503485835.5,286046998.6,N
1503485855.3,286047000.6,N
1503485875.2,286047001.2,N
1503485895.0,286047004.2,N
1503485895.9,286047004.2,N
1503485915.7,286047002.5,N
1503485935.6,286047003.8,N
1503485955.4,286046998.2,N
1503485975.2,286047001.1,N
1503485995.1,286047002.7,N
1503485996.0,286047002.7,N
